EHI
0 0 0 0 0 0 0 0 0 0 0 0 0 0 0 0 0 0 0 0 0 0 0 0 0 0 0 0 0 0 0 0 0 0 0 0 0 0
0 0 0 0 0 0 0 0 0 0 0 0 0 0 0 0 0 0 0 0 0 0 0 0 0 0 0 0 0 0 0 0 0 0 0 0 0 0
0 0 0 0 0 0 0 0 0 0 0 0 0 0 0 0 0 0 0 0 0 0 0 0 0 0 0 0 0 0 0 0 0 0 0 0 0 0
0 0 0 0 0 0 0 0 0 0 0 0 0 0 0 0 0 0 0 0 0 0 0 0 0 0 0 0 0 0 0 0 0 0 0 0 0 0
0 0 0 0 0 0 0 0 0 0 0 0 0 0 0 0 0 0 0 0 0 0 0 0 0 0 0 0 0 0 0 0 0 0 0 0 0 0
0 0 0 0 0 0 0 0 0 0 0 0 0 0 0 0 0 0 0 0 0 0 0 0 0 0 0 0 0 0 0 0 0 0 0 0 0 0
0 0 0 0 0 0 0 0 0 0 0 0 0 0 0 0 0 0 0 0 0 0 0 0 0 0 0 0 0 0 0 0 0 0 0 0 0 0
0 0 0 0 0 0 0 0 0 0 0 0 0 0 0 0 0 0 0 0 0 0 0 0 0 0 0 0 0 0 0 0 0 0 0 0 0 0
0 0 0 0 0 0 0 0 0 0 0 0 0 0 0 0 0 0 0 0 0 0 0 0 0 0 0 0 0 0 0 0 0 0 0 0 0 0
0 0 0 0 0 0 0 0 0 0 0 0 0 0 0 0 0 0 0 0 0 0 0 0 0 0 0 0 0 0 0 0 0 0 0 0 0 0
0 0 0 0 0 0 0 0 0 0 0 0 0 0 0 0 0 0 0 0 0 0 0 0 0 0 0 0 0 0 0 0 0 0 0 0 0 0
0 0 0 0 0 0 0 0 0 0 0 0 0 0 0 0 0 0 0 0 0 0 0 0 0 0 0 0 0 0 0 0 0 0 0 0 0 0
0 0 0 0 0 0 0 0 0 0 0 0 0 0 0 0 0 0 0 0 0 0 0 0 0 0 0 0 0 0 0 0 0 0 0 0 0 0
0 0 0 0 0 0 0 0 0 0 0 0 0 0 0 0 0 0 0 0 0 0 0 0 0 0 0 0 0 0 0 0 0 0 0 0 0 0
0 0 0 0 0 0 0 0 0 0 0 0 0 0 0 0 0 0 0 0 0 0 0 0 0 0 0 0 0 0 0 0 0 0 0 0 0 0
0 0 0 0 0 0 0 0 0 0 0 0 0 0 0 0 0 0 0 0 0 0 0 0 0 0 0 0 0 0 0 0 0 0 0 0 0 0
0 0 0 0 0 0 0 0 0 0 0 0 0 0 0 0 0 0 0 0 0 0 0 0 0 0 0 0 0 0 0 0 0 0 0 0 0 0
0 0 0 0 0 0 0 0 0 0 0 0 0 0 0 0 0 0 0 0 0 0 0 0 0 0 0 0 0 0 0 0 0 0 0 0 0 0
0 0 0 0 0 0 0 0 0 0 0 0 0 0 0 0 0 0 0 0 0 0 0 0 0 0 0 0 0 0 0 0 0 0 0 0 0 0
0 0 0 0 0 0 0 0 0 0 0 0 0 0 0 0 0 0 0 0 0 0 0 0 0 0 0 0 0 0 0 0 0 0 0 0 0 0
0 0 0 0 0 0 0 0 0 0 0 0 0 0 0 0 0 0 0 0 0 0 0 0 0 0 0 0 0 0 0 0 0 0 0 0 0 0
0 0 0 0 0 0 0 0 0 0 0 0 0 0 0 0 0 0 0 0 0 0 0 0 0 0 0 0 0 0 0 0 0 0 0 0 0 0
0 0 0 0 0 0 0 0 0 0 0 0 0 0 0 0 0 0 0 0 0 0 0 0 0 0 0 0 0 0 0 0 0 0 0 0 0 0
Wind_Speed
5 5 4 4 3 3 3 3 4 4 4 3 2 2 2 2 3 3 3 5 6 6 6 5 5 6 6 7 7 8 8 9 9 9 10 11 11 11
4 5 5 4 4 4 3 4 4 4 4 3 2 2 2 2 3 2 3 5 5 6 5 6 6 6 7 7 8 8 8 9 9 9 10 11 11 11
5 5 6 5 4 3 3 3 4 3 4 3 1 2 2 2 2 2 2 3 3 5 6 6 6 6 7 7 7 8 9 9 9 9 10 11 11 11
5 5 5 4 5 4 4 4 4 4 4 4 2 2 2 3 2 2 2 2 2 5 5 6 6 6 7 7 7 7 8 9 9 9 10 11 11 10
6 6 6 5 5 4 5 5 4 3 3 3 3 2 1 2 2 1 2 1 2 3 4 6 6 6 7 7 7 7 8 8 8 8 9 10 10 10
5 5 5 6 6 5 5 5 4 3 3 3 2 2 2 2 2 2 2 2 2 2 3 4 4 5 7 7 7 7 7 7 8 8 8 9 9 9
5 5 5 5 6 5 4 4 4 3 3 3 3 2 2 2 3 2 2 2 2 1 1 2 2 2 3 5 6 6 6 7 8 8 8 8 9 9
4 4 4 5 5 6 6 5 5 5 5 4 4 4 4 3 2 2 2 1 3 1 1 3 2 2 2 2 5 5 6 7 8 8 8 8 8 9
4 3 3 3 4 4 4 4 4 5 6 6 5 5 4 4 3 3 3 3 3 2 1 3 2 2 3 4 6 6 6 7 7 7 7 8 8 9
3 3 4 4 4 3 3 3 3 3 4 4 4 4 4 4 4 4 3 1 1 1 0 2 2 3 3 3 6 6 7 7 7 8 8 8 8 8
2 3 3 4 5 4 3 3 2 1 2 2 2 2 2 2 2 2 2 1 1 2 1 1 2 3 3 3 4 5 6 7 8 8 8 8 9 8
2 2 3 3 3 4 3 3 3 2 1 2 1 1 1 2 3 3 3 3 1 1 1 1 1 2 3 2 2 3 3 6 8 8 8 8 9 4
1 1 2 3 3 3 3 2 3 2 2 2 1 1 1 1 1 1 1 2 2 2 2 1 1 1 2 3 3 2 2 3 4 5 7 9 8 5
1 1 1 1 1 2 2 3 4 3 2 2 1 1 1 0 0 1 1 0 0 2 2 1 1 2 2 3 3 3 2 3 3 3 3 6 7 8
1 1 1 2 1 1 3 3 3 2 2 2 1 1 1 1 1 1 2 2 2 1 1 1 1 2 2 2 3 3 3 3 2 2 3 3 3 3
1 1 1 2 3 2 2 2 1 1 1 1 1 1 1 1 1 1 1 1 1 2 2 2 1 1 2 2 2 3 3 2 3 3 3 3 3 3
1 1 1 1 2 1 2 2 2 1 1 1 2 1 1 1 0 0 1 0 0 1 2 2 2 1 1 2 2 3 2 3 3 3 3 4 4 3
2 1 1 1 1 1 1 1 1 1 1 1 1 1 1 1 0 0 0 0 0 0 1 1 1 2 2 2 2 2 2 2 3 3 3 3 5 4
1 1 1 1 1 1 1 1 1 1 1 1 1 1 1 1 1 0 0 0 0 0 1 1 1 1 2 3 3 2 2 3 3 3 3 3 4 5
1 1 0 0 0 1 1 1 1 1 1 1 1 1 1 1 1 0 0 0 0 0 1 1 1 2 2 2 2 3 4 3 3 4 4 3 4 6
1 1 1 1 0 0 1 1 1 1 1 1 1 1 1 1 1 0 0 0 0 0 1 2 2 4 2 1 1 2 3 4 4 3 3 4 4 4
1 1 1 1 1 1 1 1 1 1 1 1 1 1 1 1 1 1 0 0 0 0 1 2 2 2 1 1 2 3 4 4 5 7 6 4 3 3
1 0 1 1 1 1 1 1 1 1 1 1 1 1 1 1 1 1 0 0 0 0 1 1 2 2 2 1 1 2 4 5 4 4 4 6 8 10
Wind_Direction
234 232 236 239 231 230 230 220 214 235 252 235 225 210 195 193 202 209 215 232 240 247 255 263 271 279 286 290 292 294 295 298 299 301 297 303 303 303
232 230 236 238 232 223 222 234 232 221 239 234 231 219 201 220 221 221 228 241 244 248 254 263 268 275 281 281 283 286 290 294 295 297 295 298 303 302
242 235 237 230 228 224 222 230 235 222 235 256 235 207 180 197 232 238 232 226 232 243 259 266 269 274 279 277 278 281 284 288 290 293 294 295 298 301
239 235 236 230 227 226 222 225 233 226 215 234 236 213 200 190 206 232 254 247 238 242 257 266 268 273 280 277 278 281 282 285 288 291 293 294 293 296
234 231 229 223 225 226 225 224 226 231 220 212 220 211 199 186 189 241 258 264 264 251 256 259 268 279 284 282 280 279 280 281 284 289 292 295 294 295
247 239 229 221 221 221 227 228 226 222 216 211 205 199 197 187 177 207 248 259 260 260 266 271 276 284 285 285 279 276 277 279 284 288 291 294 296 295
251 244 237 235 235 230 230 225 218 219 212 211 208 194 201 187 205 217 229 258 267 249 271 274 273 273 276 277 275 272 280 284 285 289 293 294 295 294
251 246 241 234 239 240 241 236 220 216 210 208 218 210 214 211 206 204 208 224 263 242 252 274 266 272 279 276 286 287 286 289 289 286 288 292 296 297
247 236 245 244 237 230 236 246 240 235 224 210 208 217 209 204 196 209 215 229 249 237 246 275 276 273 279 284 292 295 301 302 294 294 296 295 298 300
249 230 226 230 226 215 211 222 231 233 234 220 211 218 203 193 193 202 212 250 296 262 221 264 275 281 296 297 288 296 309 310 309 309 309 307 306 307
266 256 243 226 217 198 185 193 221 246 248 217 213 202 186 173 161 139 141 172 265 266 276 250 277 301 297 289 288 299 310 314 312 312 313 312 312 313
271 259 249 235 214 194 183 182 197 200 159 132 122 113 136 168 166 165 172 178 211 262 252 244 269 312 299 281 294 303 302 305 310 312 313 314 316 315
255 268 253 243 233 201 191 186 186 164 144 140 138 117 90 124 159 138 157 171 195 246 224 211 258 267 263 290 295 292 304 307 305 304 305 313 317 317
241 269 279 264 215 172 165 152 141 129 128 133 139 146 142 148 76 88 85 60 206 233 220 220 234 245 269 283 287 295 303 300 303 307 309 316 316 313
287 332 0 16 47 133 135 124 119 126 136 143 155 168 163 143 105 75 57 60 37 356 296 270 240 246 263 267 279 291 304 300 297 311 315 310 303 301
339 40 61 50 43 66 97 108 106 124 129 142 142 127 107 107 121 119 108 80 40 359 359 352 304 265 280 281 274 282 287 283 304 313 313 309 305 293
66 57 60 71 63 59 74 82 88 102 103 109 116 118 121 114 107 98 119 87 44 321 343 352 357 357 303 278 278 277 286 295 296 309 313 311 306 298
90 106 117 118 123 136 124 100 100 114 119 116 121 135 147 149 129 42 36 115 133 301 320 322 344 342 339 330 293 271 287 295 304 307 302 306 310 309
94 134 160 172 163 162 151 133 121 118 121 124 126 135 132 129 127 123 59 40 77 287 300 300 319 336 324 315 304 308 306 305 309 309 303 295 296 301
69 105 126 135 123 145 145 127 120 118 114 113 115 123 128 131 136 141 147 183 243 303 319 321 325 320 300 287 286 301 307 299 301 303 307 306 292 293
58 56 72 89 88 108 123 123 126 131 121 118 124 129 129 132 143 155 186 256 13 321 302 308 314 329 322 335 325 310 300 298 303 302 309 313 313 315
85 76 74 94 104 103 119 127 124 127 129 125 133 129 135 151 164 179 195 213 269 309 322 316 315 325 333 330 311 309 314 315 307 302 288 280 288 294
133 136 146 144 126 110 113 134 140 153 147 140 147 148 144 150 159 157 155 83 49 7 339 326 330 345 348 331 315 314 315 320 324 326 313 301 285 281